TimeCST,TemperatureF,Dew PointF,Humidity,Sea Level PressureIn,VisibilityMPH,Wind Direction,Wind SpeedMPH,Gust SpeedMPH,PrecipitationIn,Events,Conditions,WindDirDegrees,DateUTC
12:53 AM,36.0,21.0,55,30.23,10.0,WNW,8.1,-,N/A,,Clear,300,2013-01-17 06:53:00
1:53 AM,35.1,21.0,57,30.25,10.0,West,3.5,-,N/A,,Clear,270,2013-01-17 07:53:00
2:53 AM,30.9,21.9,69,30.26,10.0,WSW,3.5,-,N/A,,Clear,250,2013-01-17 08:53:00
3:53 AM,30.0,21.0,69,30.25,10.0,West,4.6,-,N/A,,Clear,280,2013-01-17 09:53:00
6:53 AM,30.0,21.9,72,30.28,10.0,WSW,4.6,-,N/A,,Clear,250,2013-01-17 12:53:00
7:53 AM,32.0,21.9,66,30.32,10.0,West,3.5,-,N/A,,Clear,280,2013-01-17 13:53:00
8:53 AM,39.0,23.0,53,30.34,10.0,NW,6.9,-,N/A,,Clear,310,2013-01-17 14:53:00
9:53 AM,45.0,25.0,46,30.37,10.0,NNW,6.9,-,N/A,,Clear,330,2013-01-17 15:53:00
10:53 AM,48.9,28.9,46,30.37,10.0,NW,8.1,-,N/A,,Clear,320,2013-01-17 16:53:00
11:53 AM,53.1,32.0,45,30.36,10.0,NW,6.9,-,N/A,,Clear,310,2013-01-17 17:53:00
12:53 PM,55.9,32.0,40,30.34,10.0,WNW,10.4,-,N/A,,Clear,300,2013-01-17 18:53:00
1:53 PM,57.9,32.0,37,30.32,10.0,North,8.1,-,N/A,,Clear,360,2013-01-17 19:53:00
2:53 PM,60.1,30.9,33,30.33,10.0,North,8.1,-,N/A,,Clear,10,2013-01-17 20:53:00
3:53 PM,59.0,28.9,32,30.35,10.0,NNE,9.2,17.3,N/A,,Clear,20,2013-01-17 21:53:00
4:53 PM,57.0,28.9,34,30.38,10.0,NNE,8.1,-,N/A,,Clear,20,2013-01-17 22:53:00
5:53 PM,52.0,30.0,43,30.40,10.0,NNE,4.6,-,N/A,,Clear,30,2013-01-17 23:53:00
6:53 PM,50.0,30.0,46,30.43,10.0,North,6.9,-,N/A,,Clear,360,2013-01-18 00:53:00
7:53 PM,48.0,30.0,50,30.44,10.0,North,5.8,-,N/A,,Clear,360,2013-01-18 01:53:00
8:53 PM,45.0,30.0,56,30.46,10.0,NNE,4.6,-,N/A,,Clear,30,2013-01-18 02:53:00
9:53 PM,43.0,30.0,60,30.48,10.0,North,3.5,-,N/A,,Clear,360,2013-01-18 03:53:00
10:53 PM,41.0,30.0,65,30.49,10.0,Calm,Calm,-,N/A,,Clear,0,2013-01-18 04:53:00
11:53 PM,37.0,30.0,76,30.50,10.0,Calm,Calm,-,N/A,,Clear,0,2013-01-18 05:53:00